Location: Hastringsfeld
(50.9620°N, 10.4787°E)
Time: 15:06:55
(UTC+00:00)

Meteor 1-10 Rocket - Pass Details

Date: 26 September 2023
Orbit: 836 x 909 km, 81.3° (Epoch: 07 December)

Event Time Altitude Azimuth Distance (km) Brightness Sun altitude
Rises 04:25:31 0° 197° (SSW) 3,405 7.1 -7.8°
Reaches altitude 10° 04:27:57 10° 200° (SSW) 2,466 6.4 -7.4°
Maximum altitude 04:33:31 71° 285° (WNW) 890 4.2 -6.6°
Drops below altitude 10° 04:39:05 10° 9° (N) 2,462 6.8 -5.7°
Sets 04:41:31 0° 12° (NNE) 3,401 7.6 -5.3°
